Regional Weather Roundup
Issued by NWS

Home | Current Version | Previous Version | Text Only | Print | Product List | Glossary On
Versions: 1 2 3 4 5 6 7 8 9 10 11 12 13 14 15 16 17 18 19 20 21 22 23 24 25 26 27 28 29 30 31 32 33 34 35 36 37 38 39 40 41 42 43 44 45 46 47 48 49 50
000
ASUS46 KSEW 251310
RWRWA

WASHINGTON REGIONAL WEATHER ROUNDUP
NATIONAL WEATHER SERVICE SEATTLE WA
500 AM PST SUN FEB 25 2018

NOTE:"FAIR" INDICATES FEW OR NO CLOUDS BELOW 12,000 FEET WITH NO
SIGNIFICANT WEATHER AND/OR OBSTRUCTIONS TO VISIBILITY.

WAZ507-509-555>559-251400-
SEATTLE, TACOMA, EVERETT, AND VICINITY

CITY           SKY/WX    TMP DP  RH WIND       PRES   REMARKS
EVERETT        CLOUDY    40  38  93 S23G33    29.81F
BOEING FIELD   LGT RAIN  42  39  89 S16G29    29.87F
RENTON         LGT RAIN  42  38  85 S15       29.88F
SEATAC AIRPORT LGT RAIN  41  40  96 S20G29    29.86F
JBLM-MCCHORD   LGT RAIN  41  41  99 SW18G29   29.90F
PUYALLUP       CLOUDY    43  37  81 SW9G16    29.90F
BREMERTON      LGT RAIN  40  39  97 SW20G28   29.85F
JBLM-FT LEWIS  LGT RAIN  40  40  99 S17G28    29.91F
TACOMA NARROWS LGT RAIN  39  38  96 S18G31    29.89F
$$

WAZ001-503-506-510-514-515-251400-
NORTH INTERIOR

CITY           SKY/WX    TMP DP  RH WIND       PRES   REMARKS
BELLINGHAM     LGT RAIN  40  38  93 S15G29    29.76F
FRIDAY HARBOR  CLOUDY    41  36  82 SW14G28   29.79F
EASTSOUND      CLOUDY    43  39  87 S12       29.75F
PORT ANGELES   LGT RAIN  42  37  82 W14       29.82R
EDIZ HOOK      CLOUDY    43  37  79 W20G33    29.82R
PORT TOWNSEND  CLOUDY    34  34 100 CALM      29.84R
NAS WHIDBEY    RAIN      46  38  73 SW17G29   29.86S
ARLINGTON      CLOUDY    39  36  89 S16       29.84F
BURLINGTON     CLOUDY    41  39  93 S10G17    29.81F
$$

WAZ020-022-039-040-504-511-512-251400-
SOUTHWEST INTERIOR

CITY           SKY/WX    TMP DP  RH WIND       PRES   REMARKS
SHELTON        RAIN      43  40  89 SW15G31   29.88S FOG
OLYMPIA        LGT RAIN  39  38  96 S12       29.93F
CHEHALIS       CLOUDY    39  39 100 S12G20    29.97F
KELSO          LGT RAIN  41  39  93 SE13G22   30.04F
VANCOUVER      CLOUDY    43  39  86 S8G23     30.09F
SCAPPOOSE, OR  CLOUDY    41  39  93 S6        30.07F
PORTLAND, OR   CLOUDY    43  38  82 S14       30.10F
$$

WAZ021-516-517-251400-
WASHINGTON COAST

CITY           SKY/WX    TMP DP  RH WIND       PRES   REMARKS
FORKS          CLOUDY    42  37  82 W9        29.87F
HOQUIAM        CLOUDY    45  42  89 SW17      29.94F
ASTORIA, OR    LGT RAIN  46  44  93 W15G23    30.01F FOG
$$

WAZ019-023-024-040-567>569-251400-
CASCADE MOUNTAINS AND COLUMBIA GORGE

CITY           SKY/WX    TMP DP  RH WIND       PRES   REMARKS
STAMPEDE PASS  LGT SNOW  30  28  92 MISG      29.71F FOG
TROUTDALE, OR  CLOUDY    45  38  76 SW15G22   30.09F
HOOD RIVER, OR DRIZZLE   41  32  70 W3        29.99F
THE DALLES, OR CLOUDY    45  32  60 NW13      30.01F
$$

WAZ026-027-041>044-520-521-251400-
EAST SLOPES

CITY           SKY/WX    TMP DP  RH WIND       PRES   REMARKS
OMAK           CLOUDY    34  23  64 S24       29.70F WCI  21
WENATCHEE      MOCLDY    38  27  64 N8        29.78F
ELLENSBURG     MOCLDY    32  26  78 S7        29.83F
YAKIMA         PTCLDY    26  20  77 W5        29.88F
SUNNYSIDE ARPT CLOUDY    39  26  59 S9G16     29.93F
YAKIMA TC      FAIR      32  23  70 S6        29.83F
$$

WAZ028-034-035-251400-
COLUMBIA BASIN

CITY           SKY/WX    TMP DP  RH WIND       PRES   REMARKS
EPHRATA        MOCLDY    35  25  66 CALM      29.81F
MOSES LAKE     MOCLDY    34  26  72 SE20      29.84F WCI  23
PASCO          CLOUDY    41  28  60 S18G30    29.98R
RICHLAND ARPT  CLOUDY    42  31  64 S16G23    29.97S
HERMISTON, OR  CLOUDY    42  27  55 S12       30.00F
$$

WAZ036>038-251400-
NORTHEAST WASHINGTON

CITY           SKY/WX    TMP DP  RH WIND       PRES   REMARKS
SPOKANE GEIGER CLOUDY    29  27  92 S21G29    29.81F WCI  16
SPOKANE FELTS  CLOUDY    32  26  78 SW13G18   29.85F WCI  22
FAIRCHILD AFB  PTCLDY    28  28 100 S24G36    29.79F WCI  14
COEURDALENE,ID FLURRIES  29  26  89 S15       29.84F WCI  18
DEER PARK      CLOUDY    27  24  89 S7        29.82F
$$

WAZ029>033-251400-
SOUTHEAST WASHINGTON

CITY           SKY/WX    TMP DP  RH WIND       PRES   REMARKS
PULLMAN        CLOUDY    32  28  85 SW21      29.93S WCI  20
LEWISTON, ID   CLOUDY    35  27  72 CALM      29.96F
WALLA WALLA    CLOUDY    40  26  57 S21       29.99F
PENDLETON, OR  CLOUDY    36  25  64 S9        30.00F
$$



USA.gov is the U.S. government's official web portal to all federal, state and local government web resources and services.